Weather History for Rutherfordton, NC

Change the Weather History Date:

Tuesday, December 11, 2012

  Actual Average (KAVL) Record (KAVL)
Temperature  
Mean Temperature 50 °F 40 °F  
Max Temperature 58 °F 50 °F 73 °F (2007)
Min Temperature 41 °F 30 °F 5 °F (1957)
Degree Days  
Heating Degree Days 16 25  
Month to date heating degree days 260  
Since 1 July heating degree days 1127  
Cooling Degree Days 0 0  
Month to date cooling degree days 0  
Year to date cooling degree days 863  
Moisture  
Dew Point 38 °F    
Average Humidity 69    
Maximum Humidity 94    
Minimum Humidity 46    
Precipitation  
Precipitation 0.00 in 0.13 in 2.13 in (1983)
Month to date precipitation 1.43  
Year to date precipitation 43.41  
Snow  
Snow 0.00 in 0.10 in 5.80 in (1915)
Month to date snowfall 0.2  
Since 1 July snowfall 0.3  
Snow Depth -    
Sea Level Pressure  
Sea Level Pressure 29.96 in    
Wind  
Wind Speed 5 mph (NNW)    
Max Wind Speed 8 mph    
Max Gust Speed -    
Visibility 10 miles    
Events      
T = Trace of Precipitation, MM = Missing Value Source: NWS Daily Summary

Daily Weather History Graph

Daily Weather History Graph

Search for Another Location

Airport:

Trip Planner

Search our weather history database for the weather conditions in past years. The results will help you decide how hot, cold, wet, or windy it might be!

Date:

Astronomy

Dec. 11, 2012 Rise Set
Actual Time 7:27 AM EST 5:15 PM EST
Civil Twilight 6:58 AM EST 5:43 PM EST
Nautical Twilight 6:27 AM EST 6:15 PM EST
Astronomical Twilight 5:56 AM EST 6:46 PM EST
Moon 5:22 AM EST (12/11) 3:51 PM EST (12/11)
Length of Visible Light 10h 44m
Length of Day
9h 48m
Waning Crescent, 4% of the Moon is Illuminated
Dec 11
Waning Crescent
Dec 13
New
Dec 20
First Quarter
Dec 28
Full
Jan 4
Last Quarter

Hourly Weather History & Observations

Time (EST) Temp. Windchill Dew Point Humidity Pressure Visibility Wind Dir Wind Speed Gust Speed Precip Events Conditions
12:15 AM 58.5 °F - 56.8 °F 94% 29.74 in 10.0 mi WSW 4.6 mph - N/A   Overcast
12:35 AM 58.3 °F - 56.7 °F 94% 29.75 in 10.0 mi SW 6.9 mph - N/A   Overcast
12:55 AM 58.6 °F - 56.7 °F 93% 29.74 in 10.0 mi SW 6.9 mph - N/A   Overcast
1:15 AM 58.6 °F - 56.7 °F 93% 29.74 in 10.0 mi SW 4.6 mph - N/A   Overcast
1:35 AM 58.3 °F - 56.3 °F 93% 29.75 in 10.0 mi West 8.1 mph - N/A   Overcast
1:55 AM 55.8 °F - 52.7 °F 89% 29.75 in 10.0 mi West 8.1 mph - N/A   Overcast
2:15 AM 54.3 °F - 50.7 °F 88% 29.76 in 10.0 mi West 8.1 mph - N/A   Overcast
2:35 AM 54.0 °F - 50.9 °F 89% 29.77 in 10.0 mi WNW 8.1 mph - N/A   Overcast
2:55 AM 53.6 °F - 50.5 °F 89% 29.78 in 10.0 mi WNW 4.6 mph - N/A   Overcast
3:15 AM 52.3 °F - 47.3 °F 83% 29.79 in 10.0 mi WNW 3.5 mph - N/A   Overcast
3:35 AM 50.7 °F - 46.9 °F 87% 29.79 in 10.0 mi WNW 3.5 mph - N/A   Scattered Clouds
3:55 AM 49.1 °F - 46.4 °F 90% 29.79 in 10.0 mi Calm Calm - N/A   Clear
4:15 AM 49.1 °F - 44.8 °F 85% 29.80 in 10.0 mi NNW 3.5 mph - N/A   Clear
4:35 AM 48.0 °F - 43.2 °F 83% 29.81 in 10.0 mi Calm Calm - N/A   Clear
4:55 AM 46.9 °F - 42.6 °F 85% 29.82 in 10.0 mi Calm Calm - N/A   Clear
5:15 AM 46.2 °F - 42.6 °F 87% 29.83 in 10.0 mi Calm Calm - N/A   Clear
5:35 AM 45.1 °F - 41.9 °F 88% 29.85 in 10.0 mi Calm Calm - N/A   Clear
5:55 AM 44.6 °F - 41.5 °F 89% 29.85 in 10.0 mi Calm Calm - N/A   Clear
6:15 AM 43.9 °F 42.3 °F 40.8 °F 89% 29.87 in 10.0 mi WNW 3.5 mph - N/A   Clear
6:35 AM 43.2 °F 40.5 °F 40.1 °F 89% 29.87 in 10.0 mi NW 4.6 mph - N/A   Clear
6:55 AM 43.0 °F 41.3 °F 38.5 °F 84% 29.89 in 10.0 mi NNW 3.5 mph - N/A   Clear
7:15 AM 43.2 °F 39.7 °F 37.8 °F 81% 29.90 in 10.0 mi North 5.8 mph - N/A   Clear
7:35 AM 43.2 °F 39.7 °F 37.4 °F 80% 29.91 in 10.0 mi North 5.8 mph - N/A   Clear
7:55 AM 43.2 °F 40.5 °F 37.0 °F 79% 29.92 in 10.0 mi North 4.6 mph - N/A   Clear
8:15 AM 43.3 °F 39.2 °F 36.7 °F 77% 29.93 in 10.0 mi NNW 6.9 mph - N/A   Clear
8:35 AM 44.6 °F 42.2 °F 37.6 °F 76% 29.94 in 10.0 mi North 4.6 mph - N/A   Clear
8:55 AM 46.0 °F 43.9 °F 37.9 °F 73% 29.94 in 10.0 mi North 4.6 mph - N/A   Clear
9:15 AM 46.4 °F 42.4 °F 37.2 °F 70% 29.96 in 10.0 mi NW 8.1 mph - N/A   Mostly Cloudy
9:35 AM 46.6 °F - 37.2 °F 70% 29.97 in 10.0 mi NNW 4.6 mph - N/A   Mostly Cloudy
9:55 AM 48.4 °F - 37.4 °F 66% 29.98 in 10.0 mi NNW 4.6 mph - N/A   Scattered Clouds
10:15 AM 49.1 °F - 37.6 °F 64% 29.98 in 10.0 mi North 5.8 mph - N/A   Clear
10:35 AM 49.6 °F - 37.0 °F 62% 29.98 in 10.0 mi North 5.8 mph - N/A   Clear
10:55 AM 50.4 °F - 37.6 °F 62% 29.98 in 10.0 mi NNW 5.8 mph - N/A   Clear
11:15 AM 51.1 °F - 36.7 °F 58% 29.98 in 10.0 mi North 5.8 mph - N/A   Clear
11:35 AM 52.2 °F - 36.1 °F 54% 29.97 in 10.0 mi North 6.9 mph - N/A   Clear
11:55 AM 53.2 °F - 36.1 °F 52% 29.97 in 10.0 mi NNW 5.8 mph - N/A   Clear
12:15 PM 52.9 °F - 35.6 °F 52% 29.97 in 10.0 mi North 5.8 mph - N/A   Clear
12:35 PM 53.1 °F - 34.9 °F 50% 29.97 in 10.0 mi North 5.8 mph - N/A   Clear
12:55 PM 53.6 °F - 35.6 °F 51% 29.96 in 10.0 mi NNW 3.5 mph - N/A   Clear
1:15 PM 52.9 °F - 34.5 °F 50% 29.97 in 10.0 mi Calm Calm - N/A   Clear
1:35 PM 53.1 °F - 34.5 °F 49% 29.97 in 10.0 mi NNW 6.9 mph - N/A   Clear
1:55 PM 52.7 °F - 33.4 °F 48% 29.97 in 10.0 mi NNE 4.6 mph - N/A   Clear
2:15 PM 52.5 °F - 32.9 °F 47% 29.98 in 10.0 mi North 5.8 mph - N/A   Clear
2:35 PM 52.7 °F - 32.2 °F 46% 29.98 in 10.0 mi North 4.6 mph - N/A   Clear
2:55 PM 52.7 °F - 32.7 °F 47% 29.99 in 10.0 mi North 5.8 mph - N/A   Clear
3:15 PM 52.3 °F - 32.2 °F 46% 30.00 in 10.0 mi North 5.8 mph - N/A   Clear
3:35 PM 52.2 °F - 32.0 °F 46% 30.00 in 10.0 mi North 4.6 mph - N/A   Clear
3:55 PM 51.4 °F - 32.2 °F 48% 30.01 in 10.0 mi North 4.6 mph - N/A   Clear
4:15 PM 50.0 °F - 32.2 °F 50% 30.03 in 10.0 mi North 5.8 mph - N/A   Clear
4:35 PM 49.1 °F - 32.2 °F 52% 30.03 in 10.0 mi North 4.6 mph - N/A   Clear
4:55 PM 48.0 °F - 32.0 °F 54% 30.04 in 10.0 mi North 4.6 mph - N/A   Clear
5:15 PM 47.3 °F - 32.0 °F 55% 30.04 in 10.0 mi North 5.8 mph - N/A   Clear
5:35 PM 46.4 °F 42.9 °F 32.0 °F 57% 30.04 in 10.0 mi North 6.9 mph - N/A   Clear
5:55 PM 45.7 °F 42.0 °F 31.6 °F 58% 30.06 in 10.0 mi North 6.9 mph - N/A   Scattered Clouds
6:15 PM 45.3 °F 42.3 °F 31.1 °F 58% 30.06 in 10.0 mi North 5.8 mph - N/A   Mostly Cloudy
6:35 PM 44.6 °F 43.1 °F 31.1 °F 59% 30.06 in 10.0 mi North 3.5 mph - N/A   Scattered Clouds
6:55 PM 44.2 °F 41.8 °F 31.1 °F 60% 30.07 in 10.0 mi North 4.6 mph - N/A   Scattered Clouds
7:15 PM 43.9 °F 40.5 °F 31.1 °F 61% 30.08 in 10.0 mi North 5.8 mph - N/A   Scattered Clouds
7:35 PM 44.1 °F 40.1 °F 31.6 °F 62% 30.08 in 10.0 mi North 6.9 mph - N/A   Overcast
7:55 PM 44.1 °F 40.8 °F 31.6 °F 62% 30.09 in 10.0 mi North 5.8 mph - N/A   Overcast
8:15 PM 44.1 °F 40.8 °F 31.6 °F 62% 30.09 in 10.0 mi North 5.8 mph - N/A   Overcast
8:35 PM 43.3 °F 41.7 °F 32.0 °F 64% 30.10 in 10.0 mi North 3.5 mph - N/A   Mostly Cloudy
8:55 PM 43.0 °F 41.3 °F 32.0 °F 65% 30.10 in 10.0 mi North 3.5 mph - N/A   Mostly Cloudy
9:15 PM 43.0 °F 40.3 °F 32.0 °F 65% 30.11 in 10.0 mi North 4.6 mph - N/A   Scattered Clouds
9:35 PM 42.8 °F 41.1 °F 32.0 °F 66% 30.12 in 10.0 mi North 3.5 mph - N/A   Clear
9:55 PM 42.6 °F - 32.0 °F 66% 30.12 in 10.0 mi Calm Calm - N/A   Clear
10:15 PM 42.1 °F - 32.0 °F 67% 30.13 in 10.0 mi Calm Calm - N/A   Clear
10:35 PM 41.9 °F 40.0 °F 32.0 °F 68% 30.12 in 10.0 mi North 3.5 mph - N/A   Clear
10:55 PM 41.7 °F - 32.0 °F 68% 30.13 in 10.0 mi Calm Calm - N/A   Clear
11:15 PM 41.4 °F - 32.0 °F 69% 30.14 in 10.0 mi Calm Calm - N/A   Clear
11:35 PM 41.4 °F - 32.0 °F 69% 30.15 in 10.0 mi Calm Calm - N/A   Mostly Cloudy
11:55 PM 41.5 °F - 32.2 °F 69% 30.15 in 10.0 mi Calm Calm - N/A   Overcast